Preview of NWS' New Version of Forecast
This preview is not operational and should not be used for support decisions.

Regional Weather Roundup (RWR)

Issued by National Weather Service (NWS)

                            
000
ASUS44 KMEG 222300
RWRTN 
TENNESSEE HOURLY STATE WEATHER ROUNDUP
NATIONAL WEATHER SERVICE MEMPHIS TN
500 PM CST FRI FEB 22 2019

TNZ002-004-019-021-049-052-054-088>092-230000-
WEST TENNESSEE
  
CITY           SKY/WX    TMP DP  RH WIND       PRES   REMARKS
MEMPHIS INTL   LGT RAIN  52  52 100 E16       30.06F FOG              
NWS MEMPHIS      N/A     51 N/A N/A MISG        N/A                   
JACKSON        LGT RAIN  48  47  96 VRB6      30.16R                  
DYERSBURG      LGT RAIN  47  46  97 E7        30.14R                  
$$

TNZ008-025-027-028-033-062-065-066-230000-
NORTH MIDDLE TENNESSEE
  
CITY           SKY/WX    TMP DP  RH WIND       PRES   REMARKS
NASHVILLE      LGT RAIN  49  46  90 N7        30.21R FOG              
CLARKSVILLE    CLOUDY    46  43  89 SE12      30.18F                  
SMYRNA         LGT RAIN  48  48 100 N8        30.22R                  
CROSSVILLE     LGT RAIN  49  47  93 E5        30.20F                  
$$

TNZ061-075-076-078-094-096-097-230000-
SOUTH MIDDLE TENNESSEE
  
CITY           SKY/WX    TMP DP  RH WIND       PRES   REMARKS
$$

TNZ017-018-042-046-047-230000-
NORTHEAST TENNESSEE
  
CITY           SKY/WX    TMP DP  RH WIND       PRES   REMARKS
TRI CITIES     LGT RAIN  50  49  96 E6        30.25F                  
$$

TNZ012-013-036-069-073-074-230000-
CENTRAL EAST TENNESSEE
  
CITY           SKY/WX    TMP DP  RH WIND       PRES   REMARKS
KNOXVILLE      LGT RAIN  51  49  92 N8        30.21R FOG              
OAK RIDGE      LGT RAIN  51  51 100 VRB5      30.24R FOG              
$$

TNZ083-085-099-230000-
SOUTHEAST TENNESSEE
  
CITY           SKY/WX    TMP DP  RH WIND       PRES   REMARKS
CHATTANOOGA    CLOUDY    52  52 100 NE6       30.21S                  
$$

SKY/WX REPORTED AS FAIR MEANS FEW OR NO CLOUDS BELOW
12 THOUSAND FEET.